Wetterdaten: Montag, 10.11.2014
Datum Zeit Temperatur Luftfeuchte Luftdruck Regen Wind Richtung Richtung Taupunkt Windchill Windben
10.11.2014 00:00 2,8 C 95 % 1011,2 hPa 0,0 l/m 0,0 km/h (0 Bft) SO 135 2,1 C 7,8 C 0,0 km/h (0 Bft)
10.11.2014 00:05 2,9 C 96 % 1011,2 hPa 0,0 l/m 0,0 km/h (0 Bft) SO 135 2,3 C 7,8 C 0,0 km/h (0 Bft)
10.11.2014 00:10 2,9 C 96 % 1011,2 hPa 0,0 l/m 0,0 km/h (0 Bft) SO 135 2,3 C 7,8 C 0,0 km/h (0 Bft)
10.11.2014 00:15 2,9 C 96 % 1011,2 hPa 0,0 l/m 0,0 km/h (0 Bft) SO 135 2,3 C 7,8 C 0,0 km/h (0 Bft)
10.11.2014 00:20 2,9 C 96 % 1011,2 hPa 0,0 l/m 0,0 km/h (0 Bft) SO 135 2,3 C 7,8 C 0,0 km/h (0 Bft)
10.11.2014 00:25 2,9 C 96 % 1011,2 hPa 0,0 l/m 0,0 km/h (0 Bft) SO 135 2,3 C 7,8 C 0,0 km/h (0 Bft)
10.11.2014 00:30 2,9 C 96 % 1011,2 hPa 0,0 l/m 0,0 km/h (0 Bft) SO 135 2,3 C 7,8 C 0,0 km/h (0 Bft)
10.11.2014 00:35 2,9 C 96 % 1011,6 hPa 0,0 l/m 0,0 km/h (0 Bft) SO 135 2,3 C 7,8 C 0,0 km/h (0 Bft)
10.11.2014 00:40 2,9 C 96 % 1011,6 hPa 0,0 l/m 0,0 km/h (0 Bft) SO 135 2,3 C 7,8 C 0,0 km/h (0 Bft)
10.11.2014 00:45 2,9 C 96 % 1011,6 hPa 0,0 l/m 0,0 km/h (0 Bft) SO 135 2,3 C 7,8 C 0,0 km/h (0 Bft)
10.11.2014 00:50 2,8 C 96 % 1011,6 hPa 0,0 l/m 0,0 km/h (0 Bft) SO 135 2,2 C 7,8 C 0,0 km/h (0 Bft)
10.11.2014 00:55 2,9 C 96 % 1011,8 hPa 0,0 l/m 0,0 km/h (0 Bft) SO 135 2,3 C 7,8 C 0,0 km/h (0 Bft)
10.11.2014 01:00 3,0 C 95 % 1011,8 hPa 0,0 l/m 0,0 km/h (0 Bft) SO 135 2,3 C 7,8 C 0,0 km/h (0 Bft)
10.11.2014 01:05 3,0 C 95 % 1011,8 hPa 0,0 l/m 0,0 km/h (0 Bft) SO 135 2,3 C 7,8 C 0,0 km/h (0 Bft)
10.11.2014 01:10 3,1 C 95 % 1011,8 hPa 0,0 l/m 0,0 km/h (0 Bft) SO 135 2,4 C 7,8 C 0,0 km/h (0 Bft)
10.11.2014 01:15 3,2 C 95 % 1011,8 hPa 0,0 l/m 0,0 km/h (0 Bft) SO 135 2,5 C 7,8 C 0,0 km/h (0 Bft)
10.11.2014 01:20 3,2 C 95 % 1011,8 hPa 0,0 l/m 0,0 km/h (0 Bft) SO 135 2,5 C 7,8 C 0,0 km/h (0 Bft)
10.11.2014 01:25 3,3 C 95 % 1011,8 hPa 0,0 l/m 0,0 km/h (0 Bft) SO 135 2,6 C 7,8 C 0,0 km/h (0 Bft)
10.11.2014 01:30 3,3 C 95 % 1011,8 hPa 0,0 l/m 0,0 km/h (0 Bft) SO 135 2,6 C 7,8 C 0,0 km/h (0 Bft)
10.11.2014 01:35 3,3 C 95 % 1011,8 hPa 0,0 l/m 0,0 km/h (0 Bft) SO 135 2,6 C 7,8 C 0,0 km/h (0 Bft)
10.11.2014 01:40 3,2 C 95 % 1011,8 hPa 0,0 l/m 0,0 km/h (0 Bft) SO 135 2,5 C 7,8 C 0,0 km/h (0 Bft)
10.11.2014 01:45 3,2 C 95 % 1011,8 hPa 0,0 l/m 0,0 km/h (0 Bft) SO 135 2,5 C 7,8 C 0,0 km/h (0 Bft)
10.11.2014 01:50 3,2 C 95 % 1011,8 hPa 0,0 l/m 0,0 km/h (0 Bft) SO 135 2,5 C 7,8 C 0,0 km/h (0 Bft)
10.11.2014 01:55 3,3 C 95 % 1011,8 hPa 0,0 l/m 0,0 km/h (0 Bft) SO 135 2,6 C 7,8 C 0,0 km/h (0 Bft)
10.11.2014 02:00 3,2 C 95 % 1011,8 hPa 0,0 l/m 0,0 km/h (0 Bft) SO 135 2,5 C 7,8 C 0,0 km/h (0 Bft)
10.11.2014 02:05 3,2 C 95 % 1011,8 hPa 0,0 l/m 0,0 km/h (0 Bft) SO 135 2,5 C 7,8 C 0,0 km/h (0 Bft)
10.11.2014 02:10 3,1 C 95 % 1011,8 hPa 0,0 l/m 0,0 km/h (0 Bft) SO 135 2,4 C 7,8 C 0,0 km/h (0 Bft)
10.11.2014 02:15 3,2 C 95 % 1011,8 hPa 0,0 l/m 0,0 km/h (0 Bft) SO 135 2,5 C 7,8 C 0,0 km/h (0 Bft)
10.11.2014 02:20 3,2 C 95 % 1012,0 hPa 0,0 l/m 0,0 km/h (0 Bft) SO 135 2,5 C 7,8 C 0,0 km/h (0 Bft)
10.11.2014 02:25 3,1 C 95 % 1012,0 hPa 0,0 l/m 0,0 km/h (0 Bft) SO 135 2,4 C 7,8 C 0,0 km/h (0 Bft)
10.11.2014 02:30 3,0 C 95 % 1012,0 hPa 0,0 l/m 0,0 km/h (0 Bft) SO 135 2,3 C 7,8 C 0,0 km/h (0 Bft)
10.11.2014 02:35 2,8 C 96 % 1012,0 hPa 0,0 l/m 0,0 km/h (0 Bft) SO 135 2,2 C 7,8 C 0,0 km/h (0 Bft)
10.11.2014 02:38 2,4 C 96 % 1011,8 hPa 0,0 l/m 0,0 km/h (0 Bft) SO 135 1,8 C 7,8 C 0,0 km/h (0 Bft)
10.11.2014 02:40 2,7 C 96 % 1011,8 hPa 0,0 l/m 0,0 km/h (0 Bft) SO 135 2,1 C 7,8 C 0,0 km/h (0 Bft)
10.11.2014 02:45 2,5 C 96 % 1011,8 hPa 0,0 l/m 0,0 km/h (0 Bft) SO 135 1,9 C 7,8 C 0,0 km/h (0 Bft)
10.11.2014 02:50 2,3 C 96 % 1011,8 hPa 0,0 l/m 0,0 km/h (0 Bft) SO 135 1,7 C 7,8 C 0,0 km/h (0 Bft)
10.11.2014 02:55 2,6 C 96 % 1011,9 hPa 0,0 l/m 0,0 km/h (0 Bft) SO 135 2,0 C 7,8 C 0,0 km/h (0 Bft)
10.11.2014 03:00 3,5 C 95 % 1011,9 hPa 0,0 l/m 0,0 km/h (0 Bft) SO 135 2,8 C 7,8 C 0,0 km/h (0 Bft)
10.11.2014 03:05 4,0 C 95 % 1011,9 hPa 0,0 l/m 0,0 km/h (0 Bft) SO 135 3,3 C 7,8 C 0,0 km/h (0 Bft)
10.11.2014 03:10 3,3 C 95 % 1011,9 hPa 0,0 l/m 0,0 km/h (0 Bft) SO 135 2,6 C 7,8 C 0,0 km/h (0 Bft)
10.11.2014 03:15 2,7 C 96 % 1011,9 hPa 0,0 l/m 0,0 km/h (0 Bft) SO 135 2,1 C 7,8 C 0,0 km/h (0 Bft)
10.11.2014 03:20 2,5 C 96 % 1011,9 hPa 0,0 l/m 0,0 km/h (0 Bft) SO 135 1,9 C 7,8 C 0,0 km/h (0 Bft)
10.11.2014 03:25 2,5 C 96 % 1011,9 hPa 0,0 l/m 0,0 km/h (0 Bft) SO 135 1,9 C 7,8 C 0,0 km/h (0 Bft)
10.11.2014 03:30 2,4 C 96 % 1011,9 hPa 0,0 l/m 0,0 km/h (0 Bft) SO 135 1,8 C 7,8 C 0,0 km/h (0 Bft)
10.11.2014 03:35 2,4 C 96 % 1012,1 hPa 0,0 l/m 0,0 km/h (0 Bft) SO 135 1,8 C 7,8 C 0,0 km/h (0 Bft)
10.11.2014 03:40 2,7 C 96 % 1012,1 hPa 0,0 l/m 0,0 km/h (0 Bft) SO 135 2,1 C 7,8 C 0,0 km/h (0 Bft)
10.11.2014 03:45 3,2 C 95 % 1012,1 hPa 0,0 l/m 0,0 km/h (0 Bft) SO 135 2,5 C 7,8 C 0,0 km/h (0 Bft)
10.11.2014 03:50 3,6 C 95 % 1012,1 hPa 0,0 l/m 0,0 km/h (0 Bft) SO 135 2,9 C 7,8 C 0,0 km/h (0 Bft)
10.11.2014 03:55 4,0 C 95 % 1012,0 hPa 0,0 l/m 0,0 km/h (0 Bft) SO 135 3,3 C 7,8 C 0,0 km/h (0 Bft)
10.11.2014 04:00 3,7 C 95 % 1012,0 hPa 0,0 l/m 0,0 km/h (0 Bft) SO 135 3,0 C 7,8 C 0,0 km/h (0 Bft)
10.11.2014 04:05 3,5 C 95 % 1012,0 hPa 0,0 l/m 0,0 km/h (0 Bft) SO 135 2,8 C 7,8 C 0,0 km/h (0 Bft)
10.11.2014 04:10 3,5 C 95 % 1012,0 hPa 0,0 l/m 0,0 km/h (0 Bft) SO 135 2,8 C 7,8 C 0,0 km/h (0 Bft)
10.11.2014 04:15 3,7 C 96 % 1012,0 hPa 0,0 l/m 0,0 km/h (0 Bft) SO 135 3,1 C 7,8 C 0,0 km/h (0 Bft)
10.11.2014 04:20 3,6 C 96 % 1011,8 hPa 0,0 l/m 0,0 km/h (0 Bft) SO 135 3,0 C 7,8 C 0,0 km/h (0 Bft)
10.11.2014 04:25 4,0 C 95 % 1011,8 hPa 0,0 l/m 0,0 km/h (0 Bft) SO 135 3,3 C 7,8 C 0,0 km/h (0 Bft)
10.11.2014 04:30 4,1 C 95 % 1011,8 hPa 0,0 l/m 0,0 km/h (0 Bft) SO 135 3,4 C 7,8 C 0,0 km/h (0 Bft)
10.11.2014 04:35 3,2 C 96 % 1011,8 hPa 0,0 l/m 0,0 km/h (0 Bft) SO 135 2,6 C 7,8 C 0,0 km/h (0 Bft)
10.11.2014 04:40 2,7 C 96 % 1011,4 hPa 0,0 l/m 0,0 km/h (0 Bft) SO 135 2,1 C 7,8 C 0,0 km/h (0 Bft)
10.11.2014 04:45 2,6 C 96 % 1011,4 hPa 0,0 l/m 0,0 km/h (0 Bft) SO 135 2,0 C 7,8 C 0,0 km/h (0 Bft)
10.11.2014 04:50 2,4 C 96 % 1011,4 hPa 0,0 l/m 0,0 km/h (0 Bft) SO 135 1,8 C 7,8 C 0,0 km/h (0 Bft)
10.11.2014 04:55 3,0 C 95 % 1011,4 hPa 0,0 l/m 0,0 km/h (0 Bft) SO 135 2,3 C 7,8 C 0,0 km/h (0 Bft)
10.11.2014 05:00 2,7 C 96 % 1011,9 hPa 0,0 l/m 0,0 km/h (0 Bft) SO 135 2,1 C 7,8 C 0,0 km/h (0 Bft)
10.11.2014 05:05 2,5 C 96 % 1011,9 hPa 0,0 l/m 0,0 km/h (0 Bft) SO 135 1,9 C 7,8 C 0,0 km/h (0 Bft)
10.11.2014 05:10 2,1 C 96 % 1011,9 hPa 0,0 l/m 0,0 km/h (0 Bft) SO 135 1,5 C 7,8 C 0,0 km/h (0 Bft)
10.11.2014 05:15 2,2 C 96 % 1011,9 hPa 0,0 l/m 0,0 km/h (0 Bft) SO 135 1,6 C 7,8 C 0,0 km/h (0 Bft)
10.11.2014 05:20 2,3 C 96 % 1012,4 hPa 0,0 l/m 0,0 km/h (0 Bft) SO 135 1,7 C 7,8 C 0,0 km/h (0 Bft)
10.11.2014 05:25 2,2 C 96 % 1012,4 hPa 0,0 l/m 0,0 km/h (0 Bft) SO 135 1,6 C 7,8 C 0,0 km/h (0 Bft)
10.11.2014 05:30 2,0 C 96 % 1012,4 hPa 0,0 l/m 0,0 km/h (0 Bft) SO 135 1,4 C 7,8 C 0,0 km/h (0 Bft)
10.11.2014 05:35 3,0 C 95 % 1012,4 hPa 0,0 l/m 0,0 km/h (0 Bft) SO 135 2,3 C 7,8 C 0,0 km/h (0 Bft)
10.11.2014 05:38 3,6 C 95 % 1012,8 hPa 0,0 l/m 0,0 km/h (0 Bft) SO 135 2,9 C 7,8 C 0,0 km/h (0 Bft)
10.11.2014 05:40 3,1 C 95 % 1012,8 hPa 0,0 l/m 0,0 km/h (0 Bft) SO 135 2,4 C 7,8 C 0,0 km/h (0 Bft)
10.11.2014 05:45 2,9 C 96 % 1012,8 hPa 0,0 l/m 0,0 km/h (0 Bft) SO 135 2,3 C 7,8 C 0,0 km/h (0 Bft)
10.11.2014 05:50 3,1 C 96 % 1012,8 hPa 0,0 l/m 0,0 km/h (0 Bft) SO 135 2,5 C 7,8 C 0,0 km/h (0 Bft)
10.11.2014 05:55 3,2 C 95 % 1013,1 hPa 0,0 l/m 0,0 km/h (0 Bft) SO 135 2,5 C 7,8 C 0,0 km/h (0 Bft)
10.11.2014 06:00 3,3 C 96 % 1013,1 hPa 0,0 l/m 0,0 km/h (0 Bft) SO 135 2,7 C 7,8 C 0,0 km/h (0 Bft)
10.11.2014 06:05 3,2 C 96 % 1013,1 hPa 0,0 l/m 0,0 km/h (0 Bft) SO 135 2,6 C 7,8 C 0,0 km/h (0 Bft)
10.11.2014 06:10 2,8 C 96 % 1013,1 hPa 0,0 l/m 0,0 km/h (0 Bft) SO 135 2,2 C 7,8 C 0,0 km/h (0 Bft)
10.11.2014 06:15 2,9 C 96 % 1013,5 hPa 0,0 l/m 0,0 km/h (0 Bft) SO 135 2,3 C 7,8 C 0,0 km/h (0 Bft)
10.11.2014 06:20 3,0 C 96 % 1013,5 hPa 0,0 l/m 0,0 km/h (0 Bft) SO 135 2,4 C 7,8 C 0,0 km/h (0 Bft)
10.11.2014 06:25 3,2 C 96 % 1013,5 hPa 0,0 l/m 0,0 km/h (0 Bft) SO 135 2,6 C 7,8 C 0,0 km/h (0 Bft)
10.11.2014 06:30 3,1 C 96 % 1013,5 hPa 0,0 l/m 0,0 km/h (0 Bft) SO 135 2,5 C 7,8 C 0,0 km/h (0 Bft)
10.11.2014 06:35 3,2 C 96 % 1013,8 hPa 0,0 l/m 0,0 km/h (0 Bft) SO 135 2,6 C 7,8 C 0,0 km/h (0 Bft)
10.11.2014 06:40 3,6 C 96 % 1013,8 hPa 0,0 l/m 0,0 km/h (0 Bft) SO 135 3,0 C 7,8 C 0,0 km/h (0 Bft)
10.11.2014 06:45 3,3 C 96 % 1013,8 hPa 0,0 l/m 0,0 km/h (0 Bft) SO 135 2,7 C 7,8 C 0,0 km/h (0 Bft)
10.11.2014 06:50 2,8 C 96 % 1013,8 hPa 0,0 l/m 0,0 km/h (0 Bft) SO 135 2,2 C 7,8 C 0,0 km/h (0 Bft)
10.11.2014 06:55 2,5 C 96 % 1014,1 hPa 0,0 l/m 0,0 km/h (0 Bft) SO 135 1,9 C 7,8 C 0,0 km/h (0 Bft)
10.11.2014 07:00 2,6 C 96 % 1014,1 hPa 0,0 l/m 0,0 km/h (0 Bft) SO 135 2,0 C 7,8 C 0,0 km/h (0 Bft)
10.11.2014 07:05 2,6 C 96 % 1014,1 hPa 0,0 l/m 0,0 km/h (0 Bft) SO 135 2,0 C 7,8 C 0,0 km/h (0 Bft)
10.11.2014 07:10 2,3 C 96 % 1014,1 hPa 0,0 l/m 0,0 km/h (0 Bft) SO 135 1,7 C 7,8 C 0,0 km/h (0 Bft)
10.11.2014 07:15 2,0 C 96 % 1014,1 hPa 0,0 l/m 0,0 km/h (0 Bft) SO 135 1,4 C 7,8 C 0,0 km/h (0 Bft)
10.11.2014 07:20 2,3 C 96 % 1014,2 hPa 0,0 l/m 0,0 km/h (0 Bft) SO 135 1,7 C 7,8 C 0,0 km/h (0 Bft)
10.11.2014 07:25 2,5 C 96 % 1014,2 hPa 0,0 l/m 0,0 km/h (0 Bft) SO 135 1,9 C 7,8 C 0,0 km/h (0 Bft)
10.11.2014 07:30 2,6 C 96 % 1014,2 hPa 0,0 l/m 0,0 km/h (0 Bft) SO 135 2,0 C 7,8 C 0,0 km/h (0 Bft)
10.11.2014 07:35 2,8 C 96 % 1014,2 hPa 0,0 l/m 0,0 km/h (0 Bft) SO 135 2,2 C 7,8 C 0,0 km/h (0 Bft)
10.11.2014 07:40 2,8 C 96 % 1014,6 hPa 0,0 l/m 0,0 km/h (0 Bft) SO 135 2,2 C 7,8 C 0,0 km/h (0 Bft)
10.11.2014 07:45 3,1 C 96 % 1014,6 hPa 0,0 l/m 0,0 km/h (0 Bft) SO 135 2,5 C 7,8 C 0,0 km/h (0 Bft)
10.11.2014 07:50 3,0 C 96 % 1014,6 hPa 0,0 l/m 0,0 km/h (0 Bft) SO 135 2,4 C 7,8 C 0,0 km/h (0 Bft)
10.11.2014 07:55 3,0 C 96 % 1014,6 hPa 0,0 l/m 0,0 km/h (0 Bft) SO 135 2,4 C 7,8 C 0,0 km/h (0 Bft)
10.11.2014 08:00 3,3 C 96 % 1014,9 hPa 0,0 l/m 0,0 km/h (0 Bft) SO 135 2,7 C 7,8 C 0,0 km/h (0 Bft)
10.11.2014 08:05 3,7 C 96 % 1014,9 hPa 0,0 l/m 0,0 km/h (0 Bft) SO 135 3,1 C 7,8 C 0,0 km/h (0 Bft)
10.11.2014 08:10 3,8 C 96 % 1014,9 hPa 0,0 l/m 0,0 km/h (0 Bft) SO 135 3,2 C 7,8 C 0,0 km/h (0 Bft)
10.11.2014 08:15 3,8 C 96 % 1014,9 hPa 0,0 l/m 0,0 km/h (0 Bft) SO 135 3,2 C 7,8 C 0,0 km/h (0 Bft)
10.11.2014 08:20 3,9 C 96 % 1014,9 hPa 0,0 l/m 0,0 km/h (0 Bft) SO 135 3,3 C 7,8 C 0,0 km/h (0 Bft)
10.11.2014 08:25 3,9 C 96 % 1014,9 hPa 0,0 l/m 0,0 km/h (0 Bft) SO 135 3,3 C 7,8 C 0,0 km/h (0 Bft)
10.11.2014 08:30 3,9 C 96 % 1014,9 hPa 0,0 l/m 0,0 km/h (0 Bft) SO 135 3,3 C 7,8 C 0,0 km/h (0 Bft)
10.11.2014 08:35 4,2 C 96 % 1014,9 hPa 0,0 l/m 0,0 km/h (0 Bft) SO 135 3,6 C 7,8 C 0,0 km/h (0 Bft)
10.11.2014 08:38 4,2 C 96 % 1014,9 hPa 0,0 l/m 0,0 km/h (0 Bft) SO 135 3,6 C 7,8 C 0,0 km/h (0 Bft)
10.11.2014 08:45 4,2 C 96 % 1014,9 hPa 0,0 l/m 0,0 km/h (0 Bft) SO 135 3,6 C 7,8 C 0,0 km/h (0 Bft)
10.11.2014 08:50 4,5 C 96 % 1014,9 hPa 0,0 l/m 0,0 km/h (0 Bft) SO 135 3,9 C 7,8 C 0,0 km/h (0 Bft)
10.11.2014 08:55 4,6 C 96 % 1015,1 hPa 0,0 l/m 0,0 km/h (0 Bft) SO 135 4,0 C 7,8 C 0,0 km/h (0 Bft)
10.11.2014 09:00 4,8 C 96 % 1015,1 hPa 0,0 l/m 0,0 km/h (0 Bft) SO 135 4,2 C 7,8 C 0,0 km/h (0 Bft)
10.11.2014 09:05 4,6 C 96 % 1015,1 hPa 0,0 l/m 0,0 km/h (0 Bft) SO 135 4,0 C 7,8 C 0,0 km/h (0 Bft)
10.11.2014 09:10 4,7 C 96 % 1015,1 hPa 0,0 l/m 0,0 km/h (0 Bft) SO 135 4,1 C 7,8 C 0,0 km/h (0 Bft)
10.11.2014 09:15 4,8 C 96 % 1015,1 hPa 0,0 l/m 0,0 km/h (0 Bft) SO 135 4,2 C 7,8 C 0,0 km/h (0 Bft)
10.11.2014 09:20 5,0 C 95 % 1015,1 hPa 0,0 l/m 0,0 km/h (0 Bft) SO 135 4,3 C 7,8 C 0,0 km/h (0 Bft)
10.11.2014 09:25 5,0 C 95 % 1015,1 hPa 0,0 l/m 0,0 km/h (0 Bft) SO 135 4,3 C 7,8 C 0,0 km/h (0 Bft)
10.11.2014 09:30 5,2 C 95 % 1015,1 hPa 0,0 l/m 0,0 km/h (0 Bft) SO 135 4,5 C 7,8 C 0,0 km/h (0 Bft)
10.11.2014 09:35 5,3 C 95 % 1015,1 hPa 0,0 l/m 0,0 km/h (0 Bft) SO 135 4,6 C 7,8 C 0,0 km/h (0 Bft)
10.11.2014 09:40 5,6 C 95 % 1015,1 hPa 0,0 l/m 0,0 km/h (0 Bft) SO 135 4,9 C 7,8 C 0,0 km/h (0 Bft)
10.11.2014 09:45 5,7 C 95 % 1015,1 hPa 0,0 l/m 0,0 km/h (0 Bft) SO 135 5,0 C 7,8 C 0,0 km/h (0 Bft)
10.11.2014 09:50 5,9 C 95 % 1015,1 hPa 0,0 l/m 0,0 km/h (0 Bft) SO 135 5,2 C 7,8 C 0,0 km/h (0 Bft)
10.11.2014 09:55 6,0 C 94 % 1015,4 hPa 0,0 l/m 0,0 km/h (0 Bft) SO 135 5,1 C 7,8 C 0,0 km/h (0 Bft)
10.11.2014 10:00 6,2 C 94 % 1015,4 hPa 0,0 l/m 0,0 km/h (0 Bft) SO 135 5,3 C 7,8 C 0,0 km/h (0 Bft)
10.11.2014 10:05 6,3 C 94 % 1015,4 hPa 0,0 l/m 0,0 km/h (0 Bft) SO 135 5,4 C 7,8 C 0,0 km/h (0 Bft)
10.11.2014 10:10 6,3 C 94 % 1015,4 hPa 0,0 l/m 0,0 km/h (0 Bft) SO 135 5,4 C 7,8 C 0,0 km/h (0 Bft)
10.11.2014 10:15 6,6 C 94 % 1015,4 hPa 0,0 l/m 0,0 km/h (0 Bft) SO 135 5,7 C 7,8 C 0,0 km/h (0 Bft)
10.11.2014 10:20 6,6 C 94 % 1015,4 hPa 0,0 l/m 0,0 km/h (0 Bft) SO 135 5,7 C 7,8 C 0,0 km/h (0 Bft)
10.11.2014 10:25 6,6 C 94 % 1015,4 hPa 0,0 l/m 0,0 km/h (0 Bft) SO 135 5,7 C 7,8 C 0,0 km/h (0 Bft)
10.11.2014 10:30 7,2 C 94 % 1015,4 hPa 0,0 l/m 0,0 km/h (0 Bft) SO 135 6,3 C 7,8 C 0,0 km/h (0 Bft)
10.11.2014 10:35 7,5 C 93 % 1015,4 hPa 0,0 l/m 0,0 km/h (0 Bft) SO 135 6,4 C 7,8 C 0,0 km/h (0 Bft)
10.11.2014 10:40 7,5 C 93 % 1015,8 hPa 0,0 l/m 0,0 km/h (0 Bft) SO 135 6,4 C 7,8 C 0,0 km/h (0 Bft)
10.11.2014 10:45 8,0 C 93 % 1015,8 hPa 0,0 l/m 0,0 km/h (0 Bft) SO 135 6,9 C 7,8 C 0,0 km/h (0 Bft)
10.11.2014 10:50 8,0 C 93 % 1015,8 hPa 0,0 l/m 0,0 km/h (0 Bft) SO 135 6,9 C 7,8 C 0,0 km/h (0 Bft)
10.11.2014 10:55 8,3 C 92 % 1015,8 hPa 0,0 l/m 0,0 km/h (0 Bft) SO 135 7,1 C 7,8 C 0,0 km/h (0 Bft)
10.11.2014 11:00 8,5 C 92 % 1016,1 hPa 0,0 l/m 0,0 km/h (0 Bft) SO 135 7,3 C 7,8 C 0,0 km/h (0 Bft)
10.11.2014 11:05 8,6 C 91 % 1016,1 hPa 0,0 l/m 0,0 km/h (0 Bft) SO 135 7,2 C 7,8 C 0,0 km/h (0 Bft)
10.11.2014 11:10 9,0 C 91 % 1016,1 hPa 0,0 l/m 0,0 km/h (0 Bft) SO 135 7,6 C 7,8 C 0,0 km/h (0 Bft)
10.11.2014 11:15 9,1 C 89 % 1016,1 hPa 0,0 l/m 0,0 km/h (0 Bft) SO 135 7,4 C 7,8 C 0,0 km/h (0 Bft)
10.11.2014 11:20 8,9 C 87 % 1015,8 hPa 0,0 l/m 0,0 km/h (0 Bft) SO 135 6,9 C 7,8 C 0,0 km/h (0 Bft)
10.11.2014 11:25 8,7 C 85 % 1015,8 hPa 0,0 l/m 0,0 km/h (0 Bft) SO 135 6,3 C 7,8 C 0,0 km/h (0 Bft)
10.11.2014 11:30 8,6 C 83 % 1015,8 hPa 0,0 l/m 0,0 km/h (0 Bft) SO 135 5,9 C 7,8 C 0,0 km/h (0 Bft)
10.11.2014 11:35 8,7 C 83 % 1015,8 hPa 0,0 l/m 0,0 km/h (0 Bft) SO 135 6,0 C 7,8 C 0,0 km/h (0 Bft)
10.11.2014 11:40 8,6 C 79 % 1015,6 hPa 0,0 l/m 0,0 km/h (0 Bft) SO 135 5,2 C 7,8 C 0,0 km/h (0 Bft)
10.11.2014 11:45 8,7 C 75 % 1015,6 hPa 0,0 l/m 0,0 km/h (0 Bft) SO 135 4,5 C 7,8 C 0,0 km/h (0 Bft)
10.11.2014 11:50 9,0 C 74 % 1015,6 hPa 0,0 l/m 0,0 km/h (0 Bft) SO 135 4,6 C 7,8 C 0,0 km/h (0 Bft)
10.11.2014 11:55 9,2 C 72 % 1015,8 hPa 0,0 l/m 0,0 km/h (0 Bft) SO 135 4,4 C 7,8 C 0,0 km/h (0 Bft)
10.11.2014 12:00 9,2 C 68 % 1015,8 hPa 0,0 l/m 0,0 km/h (0 Bft) SO 135 3,6 C 7,8 C 0,0 km/h (0 Bft)
10.11.2014 12:05 9,1 C 70 % 1015,8 hPa 0,0 l/m 0,0 km/h (0 Bft) SO 135 3,9 C 7,8 C 0,0 km/h (0 Bft)
10.11.2014 12:10 9,1 C 68 % 1015,8 hPa 0,0 l/m 0,0 km/h (0 Bft) SO 135 3,5 C 7,8 C 0,0 km/h (0 Bft)
10.11.2014 12:15 9,2 C 70 % 1015,5 hPa 0,0 l/m 0,0 km/h (0 Bft) SO 135 4,0 C 7,8 C 0,0 km/h (0 Bft)
10.11.2014 12:20 9,4 C 70 % 1015,5 hPa 0,0 l/m 0,0 km/h (0 Bft) SO 135 4,2 C 7,8 C 0,0 km/h (0 Bft)
10.11.2014 12:25 9,5 C 66 % 1015,5 hPa 0,0 l/m 0,0 km/h (0 Bft) SO 135 3,5 C 7,8 C 0,0 km/h (0 Bft)
10.11.2014 12:30 9,7 C 67 % 1015,5 hPa 0,0 l/m 0,0 km/h (0 Bft) SO 135 3,9 C 7,8 C 0,0 km/h (0 Bft)
10.11.2014 12:35 9,8 C 66 % 1015,2 hPa 0,0 l/m 0,0 km/h (0 Bft) SO 135 3,8 C 7,8 C 0,0 km/h (0 Bft)
10.11.2014 12:40 9,8 C 66 % 1015,2 hPa 0,0 l/m 0,0 km/h (0 Bft) SO 135 3,8 C 7,8 C 0,0 km/h (0 Bft)
10.11.2014 12:45 9,7 C 64 % 1015,2 hPa 0,0 l/m 0,0 km/h (0 Bft) SO 135 3,2 C 7,8 C 0,0 km/h (0 Bft)
10.11.2014 12:50 9,9 C 66 % 1015,2 hPa 0,0 l/m 0,0 km/h (0 Bft) SO 135 3,9 C 7,8 C 0,0 km/h (0 Bft)
10.11.2014 12:55 10,0 C 66 % 1015,7 hPa 0,0 l/m 0,0 km/h (0 Bft) SO 135 3,9 C 7,8 C 0,0 km/h (0 Bft)
10.11.2014 13:00 10,3 C 65 % 1015,7 hPa 0,0 l/m 0,0 km/h (0 Bft) SO 135 4,0 C 7,8 C 0,0 km/h (0 Bft)
10.11.2014 13:05 10,3 C 64 % 1015,7 hPa 0,0 l/m 0,0 km/h (0 Bft) SO 135 3,8 C 7,8 C 0,0 km/h (0 Bft)
10.11.2014 13:10 10,3 C 64 % 1015,7 hPa 0,0 l/m 0,0 km/h (0 Bft) SO 135 3,8 C 7,8 C 0,0 km/h (0 Bft)
10.11.2014 13:15 10,3 C 63 % 1015,7 hPa 0,0 l/m 0,0 km/h (0 Bft) SO 135 3,6 C 7,8 C 0,0 km/h (0 Bft)
10.11.2014 13:20 10,3 C 64 % 1015,6 hPa 0,0 l/m 0,0 km/h (0 Bft) SO 135 3,8 C 7,8 C 0,0 km/h (0 Bft)
10.11.2014 13:25 10,4 C 65 % 1015,6 hPa 0,0 l/m 0,0 km/h (0 Bft) SO 135 4,1 C 7,8 C 0,0 km/h (0 Bft)
10.11.2014 13:30 10,4 C 65 % 1015,6 hPa 0,0 l/m 0,0 km/h (0 Bft) SO 135 4,1 C 7,8 C 0,0 km/h (0 Bft)
10.11.2014 13:35 10,5 C 67 % 1015,6 hPa 0,0 l/m 0,0 km/h (0 Bft) SO 135 4,6 C 7,8 C 0,0 km/h (0 Bft)
10.11.2014 13:40 10,5 C 67 % 1015,3 hPa 0,0 l/m 0,0 km/h (0 Bft) SO 135 4,6 C 7,8 C 0,0 km/h (0 Bft)
10.11.2014 13:45 10,5 C 67 % 1015,3 hPa 0,0 l/m 0,0 km/h (0 Bft) SO 135 4,6 C 7,8 C 0,0 km/h (0 Bft)
10.11.2014 13:50 10,3 C 68 % 1015,3 hPa 0,0 l/m 0,0 km/h (0 Bft) SO 135 4,7 C 7,8 C 0,0 km/h (0 Bft)
10.11.2014 13:55 10,1 C 68 % 1015,3 hPa 0,0 l/m 0,0 km/h (0 Bft) SO 135 4,5 C 7,8 C 0,0 km/h (0 Bft)
10.11.2014 14:00 10,0 C 68 % 1015,0 hPa 0,0 l/m 0,0 km/h (0 Bft) SO 135 4,4 C 7,8 C 0,0 km/h (0 Bft)
10.11.2014 14:05 9,9 C 68 % 1015,0 hPa 0,0 l/m 0,0 km/h (0 Bft) SO 135 4,3 C 7,8 C 0,0 km/h (0 Bft)
10.11.2014 14:10 9,8 C 69 % 1015,0 hPa 0,0 l/m 0,0 km/h (0 Bft) SO 135 4,4 C 7,8 C 0,0 km/h (0 Bft)
10.11.2014 14:15 9,8 C 70 % 1015,0 hPa 0,0 l/m 0,0 km/h (0 Bft) SO 135 4,6 C 7,8 C 0,0 km/h (0 Bft)
10.11.2014 14:20 9,8 C 70 % 1014,7 hPa 0,0 l/m 0,0 km/h (0 Bft) SO 135 4,6 C 7,8 C 0,0 km/h (0 Bft)
10.11.2014 14:25 9,8 C 70 % 1014,7 hPa 0,0 l/m 0,0 km/h (0 Bft) SO 135 4,6 C 7,8 C 0,0 km/h (0 Bft)
10.11.2014 14:30 9,7 C 69 % 1014,7 hPa 0,0 l/m 0,0 km/h (0 Bft) SO 135 4,3 C 7,8 C 0,0 km/h (0 Bft)
10.11.2014 14:33 9,7 C 70 % 1014,7 hPa 0,0 l/m 0,0 km/h (0 Bft) SO 135 4,5 C 7,8 C 0,0 km/h (0 Bft)
10.11.2014 14:35 9,7 C 70 % 1015,0 hPa 0,0 l/m 0,0 km/h (0 Bft) SO 135 4,5 C 7,8 C 0,0 km/h (0 Bft)
10.11.2014 14:40 9,7 C 71 % 1015,0 hPa 0,0 l/m 0,0 km/h (0 Bft) SO 135 4,7 C 7,8 C 0,0 km/h (0 Bft)
10.11.2014 14:45 9,8 C 71 % 1015,0 hPa 0,0 l/m 0,0 km/h (0 Bft) SO 135 4,8 C 7,8 C 0,0 km/h (0 Bft)
10.11.2014 14:50 9,7 C 71 % 1015,0 hPa 0,0 l/m 0,0 km/h (0 Bft) SO 135 4,7 C 7,8 C 0,0 km/h (0 Bft)
10.11.2014 14:55 9,7 C 71 % 1014,9 hPa 0,0 l/m 0,0 km/h (0 Bft) SO 135 4,7 C 7,8 C 0,0 km/h (0 Bft)
10.11.2014 15:00 9,6 C 71 % 1014,9 hPa 0,0 l/m 0,0 km/h (0 Bft) SO 135 4,6 C 7,8 C 0,0 km/h (0 Bft)
10.11.2014 15:05 9,7 C 72 % 1014,9 hPa 0,0 l/m 0,0 km/h (0 Bft) SO 135 4,9 C 7,8 C 0,0 km/h (0 Bft)
10.11.2014 15:10 9,6 C 71 % 1014,9 hPa 0,0 l/m 0,0 km/h (0 Bft) SO 135 4,6 C 7,8 C 0,0 km/h (0 Bft)
10.11.2014 15:15 9,4 C 71 % 1014,9 hPa 0,0 l/m 0,0 km/h (0 Bft) SO 135 4,4 C 7,8 C 0,0 km/h (0 Bft)
10.11.2014 15:20 9,3 C 71 % 1014,9 hPa 0,0 l/m 0,0 km/h (0 Bft) SO 135 4,3 C 7,8 C 0,0 km/h (0 Bft)
10.11.2014 15:25 9,2 C 72 % 1014,9 hPa 0,0 l/m 0,0 km/h (0 Bft) SO 135 4,4 C 7,8 C 0,0 km/h (0 Bft)
10.11.2014 15:30 9,0 C 72 % 1014,9 hPa 0,0 l/m 0,0 km/h (0 Bft) SO 135 4,2 C 7,8 C 0,0 km/h (0 Bft)
10.11.2014 15:35 8,8 C 73 % 1015,1 hPa 0,0 l/m 0,0 km/h (0 Bft) SO 135 4,2 C 7,8 C 0,0 km/h (0 Bft)
10.11.2014 15:40 8,5 C 73 % 1015,1 hPa 0,0 l/m 0,0 km/h (0 Bft) SO 135 3,9 C 7,8 C 0,0 km/h (0 Bft)
10.11.2014 15:45 8,4 C 73 % 1015,1 hPa 0,0 l/m 0,0 km/h (0 Bft) SO 135 3,8 C 7,8 C 0,0 km/h (0 Bft)
10.11.2014 15:50 8,3 C 74 % 1015,1 hPa 0,0 l/m 0,0 km/h (0 Bft) SO 135 3,9 C 7,8 C 0,0 km/h (0 Bft)
10.11.2014 15:55 8,2 C 74 % 1015,2 hPa 0,0 l/m 0,0 km/h (0 Bft) SO 135 3,8 C 7,8 C 0,0 km/h (0 Bft)
10.11.2014 16:00 8,1 C 75 % 1015,2 hPa 0,0 l/m 0,0 km/h (0 Bft) SO 135 3,9 C 7,8 C 0,0 km/h (0 Bft)
10.11.2014 16:05 8,1 C 75 % 1015,2 hPa 0,0 l/m 0,0 km/h (0 Bft) SO 135 3,9 C 7,8 C 0,0 km/h (0 Bft)
10.11.2014 16:10 8,1 C 75 % 1015,2 hPa 0,0 l/m 0,0 km/h (0 Bft) SO 135 3,9 C 7,8 C 0,0 km/h (0 Bft)
10.11.2014 16:15 7,9 C 75 % 1015,2 hPa 0,0 l/m 0,0 km/h (0 Bft) SO 135 3,7 C 7,8 C 0,0 km/h (0 Bft)
10.11.2014 16:20 7,7 C 75 % 1015,2 hPa 0,0 l/m 0,0 km/h (0 Bft) SO 135 3,6 C 7,8 C 0,0 km/h (0 Bft)
10.11.2014 16:25 7,7 C 76 % 1015,2 hPa 0,0 l/m 0,0 km/h (0 Bft) SO 135 3,7 C 7,8 C 0,0 km/h (0 Bft)
10.11.2014 16:30 7,6 C 76 % 1015,2 hPa 0,0 l/m 0,0 km/h (0 Bft) SO 135 3,6 C 7,8 C 0,0 km/h (0 Bft)
10.11.2014 16:35 7,4 C 77 % 1015,2 hPa 0,0 l/m 0,0 km/h (0 Bft) SO 135 3,6 C 7,8 C 0,0 km/h (0 Bft)
10.11.2014 16:40 7,2 C 77 % 1014,9 hPa 0,0 l/m 0,0 km/h (0 Bft) SO 135 3,4 C 7,8 C 0,0 km/h (0 Bft)
10.11.2014 16:45 7,4 C 78 % 1014,9 hPa 0,0 l/m 0,0 km/h (0 Bft) SO 135 3,8 C 7,8 C 0,0 km/h (0 Bft)
10.11.2014 16:50 7,3 C 78 % 1014,9 hPa 0,0 l/m 0,0 km/h (0 Bft) SO 135 3,7 C 7,8 C 0,0 km/h (0 Bft)
10.11.2014 16:55 7,0 C 79 % 1014,9 hPa 0,0 l/m 0,0 km/h (0 Bft) SO 135 3,6 C 7,8 C 0,0 km/h (0 Bft)
10.11.2014 17:00 6,9 C 80 % 1015,1 hPa 0,0 l/m 0,0 km/h (0 Bft) SO 135 3,7 C 7,8 C 0,0 km/h (0 Bft)
10.11.2014 17:05 6,7 C 80 % 1015,1 hPa 0,0 l/m 0,0 km/h (0 Bft) SO 135 3,5 C 7,8 C 0,0 km/h (0 Bft)
10.11.2014 17:10 6,5 C 80 % 1015,1 hPa 0,0 l/m 0,0 km/h (0 Bft) SO 135 3,3 C 7,8 C 0,0 km/h (0 Bft)
10.11.2014 17:15 6,6 C 80 % 1015,1 hPa 0,0 l/m 0,0 km/h (0 Bft) SO 135 3,4 C 7,8 C 0,0 km/h (0 Bft)
10.11.2014 17:20 6,5 C 80 % 1014,9 hPa 0,0 l/m 0,0 km/h (0 Bft) SO 135 3,3 C 7,8 C 0,0 km/h (0 Bft)
10.11.2014 17:25 6,2 C 81 % 1014,9 hPa 0,0 l/m 0,0 km/h (0 Bft) SO 135 3,2 C 7,8 C 0,0 km/h (0 Bft)
10.11.2014 17:30 5,5 C 82 % 1014,9 hPa 0,0 l/m 0,0 km/h (0 Bft) SO 135 2,7 C 7,8 C 0,0 km/h (0 Bft)
10.11.2014 17:33 5,6 C 83 % 1014,9 hPa 0,0 l/m 0,0 km/h (0 Bft) SO 135 2,9 C 7,8 C 0,0 km/h (0 Bft)
10.11.2014 17:40 4,5 C 83 % 1014,7 hPa 0,0 l/m 0,0 km/h (0 Bft) SO 135 1,9 C 7,8 C 0,0 km/h (0 Bft)
10.11.2014 17:45 4,4 C 83 % 1014,7 hPa 0,0 l/m 0,0 km/h (0 Bft) SO 135 1,8 C 7,8 C 0,0 km/h (0 Bft)
10.11.2014 17:50 4,7 C 85 % 1014,7 hPa 0,0 l/m 0,0 km/h (0 Bft) SO 135 2,4 C 7,8 C 0,0 km/h (0 Bft)
10.11.2014 17:55 4,3 C 85 % 1014,2 hPa 0,0 l/m 0,0 km/h (0 Bft) SO 135 2,0 C 7,8 C 0,0 km/h (0 Bft)
10.11.2014 18:00 3,8 C 85 % 1014,2 hPa 0,0 l/m 0,0 km/h (0 Bft) SO 135 1,5 C 7,8 C 0,0 km/h (0 Bft)
10.11.2014 18:05 3,7 C 86 % 1014,2 hPa 0,0 l/m 0,0 km/h (0 Bft) SO 135 1,6 C 7,8 C 0,0 km/h (0 Bft)
10.11.2014 18:10 3,9 C 87 % 1014,2 hPa 0,0 l/m 0,0 km/h (0 Bft) SO 135 1,9 C 7,8 C 0,0 km/h (0 Bft)
10.11.2014 18:15 3,9 C 88 % 1014,4 hPa 0,0 l/m 0,0 km/h (0 Bft) SO 135 2,1 C 7,8 C 0,0 km/h (0 Bft)
10.11.2014 18:20 3,6 C 88 % 1014,4 hPa 0,0 l/m 0,0 km/h (0 Bft) SO 135 1,8 C 7,8 C 0,0 km/h (0 Bft)
10.11.2014 18:25 3,1 C 87 % 1014,4 hPa 0,0 l/m 0,0 km/h (0 Bft) SO 135 1,2 C 7,8 C 0,0 km/h (0 Bft)
10.11.2014 18:30 3,2 C 88 % 1014,4 hPa 0,0 l/m 0,0 km/h (0 Bft) SO 135 1,4 C 7,8 C 0,0 km/h (0 Bft)
10.11.2014 18:35 3,0 C 88 % 1014,4 hPa 0,0 l/m 0,0 km/h (0 Bft) SO 135 1,2 C 7,8 C 0,0 km/h (0 Bft)
10.11.2014 18:40 3,3 C 88 % 1014,4 hPa 0,0 l/m 0,0 km/h (0 Bft) SO 135 1,5 C 7,8 C 0,0 km/h (0 Bft)
10.11.2014 18:45 3,5 C 89 % 1014,4 hPa 0,0 l/m 0,0 km/h (0 Bft) SO 135 1,9 C 7,8 C 0,0 km/h (0 Bft)
10.11.2014 18:50 2,7 C 89 % 1014,4 hPa 0,0 l/m 0,0 km/h (0 Bft) SO 135 1,1 C 7,8 C 0,0 km/h (0 Bft)
10.11.2014 18:55 3,0 C 89 % 1014,2 hPa 0,0 l/m 0,0 km/h (0 Bft) SO 135 1,4 C 7,8 C 0,0 km/h (0 Bft)
10.11.2014 19:00 3,1 C 89 % 1014,2 hPa 0,0 l/m 0,0 km/h (0 Bft) SO 135 1,5 C 7,8 C 0,0 km/h (0 Bft)
10.11.2014 19:05 3,1 C 89 % 1014,2 hPa 0,0 l/m 0,0 km/h (0 Bft) SO 135 1,5 C 7,8 C 0,0 km/h (0 Bft)
10.11.2014 19:10 2,5 C 89 % 1014,2 hPa 0,0 l/m 0,0 km/h (0 Bft) SO 135 0,9 C 7,8 C 0,0 km/h (0 Bft)
10.11.2014 19:15 2,4 C 89 % 1014,2 hPa 0,0 l/m 0,0 km/h (0 Bft) SO 135 0,8 C 7,8 C 0,0 km/h (0 Bft)
10.11.2014 19:20 2,3 C 89 % 1013,9 hPa 0,0 l/m 0,0 km/h (0 Bft) SO 135 0,7 C 7,8 C 0,0 km/h (0 Bft)
10.11.2014 19:25 2,9 C 90 % 1013,9 hPa 0,0 l/m 0,0 km/h (0 Bft) SO 135 1,4 C 7,8 C 0,0 km/h (0 Bft)
10.11.2014 19:30 3,5 C 90 % 1013,9 hPa 0,0 l/m 0,0 km/h (0 Bft) SO 135 2,0 C 7,8 C 0,0 km/h (0 Bft)
10.11.2014 19:35 2,0 C 90 % 1013,9 hPa 0,0 l/m 0,0 km/h (0 Bft) SO 135 0,5 C 7,8 C 0,0 km/h (0 Bft)
10.11.2014 19:40 1,9 C 90 % 1013,9 hPa 0,0 l/m 0,0 km/h (0 Bft) SO 135 0,4 C 7,8 C 0,0 km/h (0 Bft)
10.11.2014 19:45 2,2 C 90 % 1013,9 hPa 0,0 l/m 0,0 km/h (0 Bft) SO 135 0,7 C 7,8 C 0,0 km/h (0 Bft)
10.11.2014 19:50 1,9 C 91 % 1013,7 hPa 0,0 l/m 0,0 km/h (0 Bft) SO 135 0,6 C 7,8 C 0,0 km/h (0 Bft)
10.11.2014 19:55 2,0 C 91 % 1013,7 hPa 0,0 l/m 0,0 km/h (0 Bft) SO 135 0,7 C 7,8 C 0,0 km/h (0 Bft)
10.11.2014 20:00 2,1 C 91 % 1013,7 hPa 0,0 l/m 0,0 km/h (0 Bft) SO 135 0,8 C 7,8 C 0,0 km/h (0 Bft)
10.11.2014 20:05 1,7 C 91 % 1013,7 hPa 0,0 l/m 0,0 km/h (0 Bft) SO 135 0,4 C 7,8 C 0,0 km/h (0 Bft)
10.11.2014 20:10 1,7 C 91 % 1013,8 hPa 0,0 l/m 0,0 km/h (0 Bft) SO 135 0,4 C 7,8 C 0,0 km/h (0 Bft)
10.11.2014 20:15 1,6 C 91 % 1013,8 hPa 0,0 l/m 0,0 km/h (0 Bft) SO 135 0,3 C 7,8 C 0,0 km/h (0 Bft)
10.11.2014 20:20 2,1 C 91 % 1013,8 hPa 0,0 l/m 0,0 km/h (0 Bft) SO 135 0,8 C 7,8 C 0,0 km/h (0 Bft)
10.11.2014 20:25 1,9 C 92 % 1013,8 hPa 0,0 l/m 0,0 km/h (0 Bft) SO 135 0,7 C 7,8 C 0,0 km/h (0 Bft)
10.11.2014 20:30 1,8 C 92 % 1013,9 hPa 0,0 l/m 0,0 km/h (0 Bft) SO 135 0,6 C 7,8 C 0,0 km/h (0 Bft)
10.11.2014 20:35 1,7 C 92 % 1013,9 hPa 0,0 l/m 0,0 km/h (0 Bft) SO 135 0,5 C 7,8 C 0,0 km/h (0 Bft)
10.11.2014 20:40 1,6 C 92 % 1013,9 hPa 0,0 l/m 0,0 km/h (0 Bft) SO 135 0,4 C 7,8 C 0,0 km/h (0 Bft)
10.11.2014 20:45 1,9 C 92 % 1013,9 hPa 0,0 l/m 0,0 km/h (0 Bft) SO 135 0,7 C 7,8 C 0,0 km/h (0 Bft)
10.11.2014 20:50 1,8 C 92 % 1013,9 hPa 0,0 l/m 0,0 km/h (0 Bft) SO 135 0,6 C 7,8 C 0,0 km/h (0 Bft)
10.11.2014 20:55 2,0 C 92 % 1013,9 hPa 0,0 l/m 0,0 km/h (0 Bft) SO 135 0,8 C 7,8 C 0,0 km/h (0 Bft)
10.11.2014 21:00 2,3 C 92 % 1013,9 hPa 0,0 l/m 0,0 km/h (0 Bft) SO 135 1,1 C 7,8 C 0,0 km/h (0 Bft)
10.11.2014 21:05 2,2 C 92 % 1013,9 hPa 0,0 l/m 0,0 km/h (0 Bft) SO 135 1,0 C 7,8 C 0,0 km/h (0 Bft)
10.11.2014 21:10 2,5 C 93 % 1013,9 hPa 0,0 l/m 0,0 km/h (0 Bft) SO 135 1,5 C 7,8 C 0,0 km/h (0 Bft)
10.11.2014 21:15 2,4 C 93 % 1013,9 hPa 0,0 l/m 0,0 km/h (0 Bft) SO 135 1,4 C 7,8 C 0,0 km/h (0 Bft)
10.11.2014 21:20 2,5 C 93 % 1013,9 hPa 0,0 l/m 0,0 km/h (0 Bft) SO 135 1,5 C 7,8 C 0,0 km/h (0 Bft)
10.11.2014 21:25 2,6 C 93 % 1013,9 hPa 0,0 l/m 0,0 km/h (0 Bft) SO 135 1,6 C 7,8 C 0,0 km/h (0 Bft)
10.11.2014 21:30 2,6 C 93 % 1013,5 hPa 0,0 l/m 0,0 km/h (0 Bft) SO 135 1,6 C 7,8 C 0,0 km/h (0 Bft)
10.11.2014 21:35 2,6 C 93 % 1013,5 hPa 0,0 l/m 0,0 km/h (0 Bft) SO 135 1,6 C 7,8 C 0,0 km/h (0 Bft)
10.11.2014 21:40 2,6 C 93 % 1013,5 hPa 0,0 l/m 0,0 km/h (0 Bft) SO 135 1,6 C 7,8 C 0,0 km/h (0 Bft)
10.11.2014 21:45 2,6 C 93 % 1013,5 hPa 0,0 l/m 0,0 km/h (0 Bft) SO 135 1,6 C 7,8 C 0,0 km/h (0 Bft)
10.11.2014 21:50 2,8 C 93 % 1013,5 hPa 0,0 l/m 0,0 km/h (0 Bft) SO 135 1,8 C 7,8 C 0,0 km/h (0 Bft)
10.11.2014 21:55 2,8 C 93 % 1013,4 hPa 0,0 l/m 0,0 km/h (0 Bft) SO 135 1,8 C 7,8 C 0,0 km/h (0 Bft)
10.11.2014 22:00 3,0 C 92 % 1013,4 hPa 0,0 l/m 0,0 km/h (0 Bft) SO 135 1,8 C 7,8 C 0,0 km/h (0 Bft)
10.11.2014 22:05 3,0 C 92 % 1013,4 hPa 0,0 l/m 0,0 km/h (0 Bft) SO 135 1,8 C 7,8 C 0,0 km/h (0 Bft)
10.11.2014 22:10 3,1 C 92 % 1013,4 hPa 0,0 l/m 0,0 km/h (0 Bft) SO 135 1,9 C 7,8 C 0,0 km/h (0 Bft)
10.11.2014 22:15 3,1 C 92 % 1013,6 hPa 0,0 l/m 0,0 km/h (0 Bft) SO 135 1,9 C 7,8 C 0,0 km/h (0 Bft)
10.11.2014 22:20 3,1 C 92 % 1013,6 hPa 0,0 l/m 0,0 km/h (0 Bft) SO 135 1,9 C 7,8 C 0,0 km/h (0 Bft)
10.11.2014 22:25 3,2 C 92 % 1013,6 hPa 0,0 l/m 0,0 km/h (0 Bft) SO 135 2,0 C 7,8 C 0,0 km/h (0 Bft)
10.11.2014 22:30 3,2 C 92 % 1013,6 hPa 0,0 l/m 0,0 km/h (0 Bft) SO 135 2,0 C 7,8 C 0,0 km/h (0 Bft)
10.11.2014 22:35 3,1 C 92 % 1013,4 hPa 0,0 l/m 0,0 km/h (0 Bft) SO 135 1,9 C 7,8 C 0,0 km/h (0 Bft)
10.11.2014 22:40 3,2 C 92 % 1013,4 hPa 0,0 l/m 0,0 km/h (0 Bft) SO 135 2,0 C 7,8 C 0,0 km/h (0 Bft)
10.11.2014 22:45 3,4 C 93 % 1013,4 hPa 0,0 l/m 0,0 km/h (0 Bft) SO 135 2,4 C 7,8 C 0,0 km/h (0 Bft)
10.11.2014 22:50 3,8 C 93 % 1013,4 hPa 0,0 l/m 0,0 km/h (0 Bft) SO 135 2,8 C 7,8 C 0,0 km/h (0 Bft)
10.11.2014 22:55 3,7 C 93 % 1013,4 hPa 0,0 l/m 0,0 km/h (0 Bft) SO 135 2,7 C 7,8 C 0,0 km/h (0 Bft)
10.11.2014 23:00 3,3 C 93 % 1013,4 hPa 0,0 l/m 0,0 km/h (0 Bft) SO 135 2,3 C 7,8 C 0,0 km/h (0 Bft)
10.11.2014 23:05 3,3 C 93 % 1013,4 hPa 0,0 l/m 0,0 km/h (0 Bft) SO 135 2,3 C 7,8 C 0,0 km/h (0 Bft)
10.11.2014 23:10 3,4 C 93 % 1013,4 hPa 0,0 l/m 0,0 km/h (0 Bft) SO 135 2,4 C 7,8 C 0,0 km/h (0 Bft)
10.11.2014 23:15 3,3 C 93 % 1013,5 hPa 0,0 l/m 0,0 km/h (0 Bft) SO 135 2,3 C 7,8 C 0,0 km/h (0 Bft)
10.11.2014 23:20 3,4 C 93 % 1013,5 hPa 0,0 l/m 0,0 km/h (0 Bft) SO 135 2,4 C 7,8 C 0,0 km/h (0 Bft)
10.11.2014 23:25 3,4 C 93 % 1013,5 hPa 0,0 l/m 0,0 km/h (0 Bft) SO 135 2,4 C 7,8 C 0,0 km/h (0 Bft)
10.11.2014 23:30 3,5 C 93 % 1013,5 hPa 0,0 l/m 0,0 km/h (0 Bft) SO 135 2,5 C 7,8 C 0,0 km/h (0 Bft)
10.11.2014 23:35 3,7 C 93 % 1013,5 hPa 0,0 l/m 0,0 km/h (0 Bft) SO 135 2,7 C 7,8 C 0,0 km/h (0 Bft)
10.11.2014 23:40 3,6 C 93 % 1013,5 hPa 0,0 l/m 0,0 km/h (0 Bft) SO 135 2,6 C 7,8 C 0,0 km/h (0 Bft)
10.11.2014 23:45 3,8 C 93 % 1013,5 hPa 0,0 l/m 0,0 km/h (0 Bft) SO 135 2,8 C 7,8 C 0,0 km/h (0 Bft)
10.11.2014 23:50 3,6 C 93 % 1013,5 hPa 0,0 l/m 0,0 km/h (0 Bft) SO 135 2,6 C 7,8 C 0,0 km/h (0 Bft)
10.11.2014 23:55 3,6 C 93 % 1013,4 hPa 0,0 l/m 0,0 km/h (0 Bft) SO 135 2,6 C 7,8 C 0,0 km/h (0 Bft)
_ Min-Zeit 20:40 13:15 00:30 - 23:55 - - 20:15 23:55 23:55
Minimum _ 1,6 C 63 % 1011,2 hPa - 0,0 km/h (0 Bft) - - 0,3 C 7,8 C 0,0 km/h (0 Bft)
_ Max-Zeit 13:45 09:15 11:15 23:55 23:55 - - 11:10 23:55 23:55
Maximum _ 10,5 C 96 % 1016,1 hPa 0,0 l/m 0,0 km/h
SO (0 Bft)
- - 7,6 C 7,8 C 0,0 km/h
SO (0 Bft)
Durchschnitt _ 4,9 C 88 % 1013,9 hPa #0,0 l/m 0,0 km/h (0 Bft) - - - 3,0 C 7,8 C 0,0 km/h (0 Bft)